Regional Weather Roundup
Issued by NWS

Home | Current Version | Previous Version | Graphics & Text | Print | Product List | Glossary On
Versions: 1 2 3 4 5 6 7 8 9 10 11 12 13 14 15 16 17 18 19 20 21 22 23 24 25 26 27 28 29 30 31 32 33 34 35 36 37 38 39 40 41 42 43 44 45 46 47 48 49 50
990
ASUS45 KTFX 130910
RWRMT
MONTANA REGIONAL WEATHER ROUNDUP
NATIONAL WEATHER SERVICE GREAT FALLS MT
200 AM MST SAT FEB 13 2016

NOTE: "FAIR" INDICATES FEW OR NO CLOUDS BELOW 12000 FEET WITH NO
SIGNIFICANT WEATHER AND/OR OBSTRUCTIONS TO VISIBILITY.

MTZ001>007-043-131000-
WEST OF THE DIVIDE

CITY           SKY/WX    TMP DP  RH WIND       PRES   REMARKS
KALISPELL      CLOUDY    35  35 100 S5        29.99F FOG
MISSOULA       LGT RAIN  36  35  96 NW13G23   30.04R FOG     WCI  27
BUTTE          CLOUDY    28  24  85 CALM      30.02F
MULLAN PASS    SNOW      29  28  96 VRB3      30.02F VSB 1/2
ANACONDA         N/A     41  28  60 S8        29.98F
DEER LODGE       N/A     32  32 100 CALM      29.98F
HAMILTON         N/A     37  34  87 SE3       29.97F
PLAINS           N/A     41  38  89 CALM      30.06F
THOMPSON FALLS   N/A     41  39  92 W1        30.12R
$$

MTZ008-052>055-131000-
SOUTHWEST MONTANA

CITY           SKY/WX    TMP DP  RH WIND       PRES   REMARKS
BOZEMAN        CLOUDY    33  30  88 SW5       30.02F
DILLON         CLOUDY    36  23  59 S16       30.04F WCI  26
ENNIS          CLOUDY    41  21  45 S15G22    30.10F
TWIN BRIDGES     N/A     32  23  69 E6        30.03F WCI  26
$$

MTZ009-010-012-014-046-048-049-054-131000-
EAST SLOPES AND CENTRAL MONTANA

CITY           SKY/WX    TMP DP  RH WIND       PRES   REMARKS
CUT BANK       MOCLDY    28  27  96 VRB5      29.86F
GREAT FALLS    CLEAR     43  31  62 S15       29.88F
MALMSTROM AFB  CLOUDY    41  33  72 S15       29.89F
HELENA         CLOUDY    34  30  85 SE5       29.98F
CHOTEAU          N/A     48  34  57 SW20G37   29.83F
CONRAD           N/A     25  25 100 W2        29.90S
$$

MTZ011-013-016-021-045-047-050-051-131000-
NORTH CENTRAL MONTANA

CITY           SKY/WX    TMP DP  RH WIND       PRES   REMARKS
HAVRE          FOG       22  21  96 E3        29.92F VSB 1
LEWISTOWN      CLOUDY    46  32  58 MISG      29.92F
N BAR RANCH      N/A     39  30  70 CALM      29.96F
CHINOOK          N/A     25  25 100 E10       29.94F WCI  15
$$

MTZ017>020-022>027-061-062-131000-
NORTHEAST MONTANA

CITY           SKY/WX    TMP DP  RH WIND       PRES   REMARKS
GLASGOW        CLOUDY    18  14  84 E18       30.03F WCI   2
JORDAN           N/A     29  26  89 SE8       29.99F WCI  21
SIDNEY         CLOUDY    18  12  79 SE12      30.17F WCI   5
WOLF POINT     CLOUDY    18  13  80 E13       30.10F WCI   5
PLENTYWOOD       N/A     10   9  92 SE16      30.14F WCI  -7
POPLAR           N/A     18  12  79 E12       30.13F WCI   5
SCOBEY           N/A     14   2  59 E16       30.06F WCI  -2
$$

MTZ028>42-056>058-131000-
SOUTHCENTRAL AND SOUTHEAST MONTANA

CITY           SKY/WX    TMP DP  RH WIND       PRES   REMARKS
BAKER          CLOUDY    20  15  81 SE22G28   30.09F WCI   3
BILLINGS       CLOUDY    33  29  85 S5        29.98F
LIVINGSTON     PTCLDY    49  18  29 SW26G44   29.97F
MILES CITY     CLOUDY    29  24  82 SE13      30.03F WCI  19
EKALAKA          N/A     22  18  85 SE21      29.99F WCI   7
FORSYTH          N/A     28  27  93 E6        30.00F WCI  22
LAUREL           N/A     32  26  78 CALM      29.96F
ROUNDUP          N/A     34  27  76 S2        29.88F
$$

REGIONAL REPORTS...DAKOTAS

CITY           SKY/WX    TMP DP  RH WIND       PRES   REMARKS
WILLISTON      LGT SNOW  13   7  77 SE9       30.22F WCI   1
MINOT          CLOUDY     7  -5  57 SE13      30.36F WCI  -9
DICKINSON      CLOUDY    11   6  81 SE20      30.18F WCI  -7
BEACH          LGT SNOW  18  16  93 SE25G32   30.12F WCI  -1
CROSBY         LGT SNOW  10   7  85 SE14      30.25F WCI  -5
TIOGA          LGT SNOW   9   7  92 SE21      30.28S WCI -11
WATFORD CITY   FLURRIES  10   7  85 SE12G18   30.22F WCI  -4
BISMARCK       CLOUDY     8  -1  66 SE12      30.43F WCI  -7
GRAND FORKS    CLOUDY    -8 -14  74 S3        30.63F
FARGO          CLOUDY    -8 -15  71 CALM      30.64F
BUFFALO SD       N/A     20  17  88 SE20      30.07F WCI   4
RAPID CITY     CLOUDY    27  23  85 SE14      30.13F WCI  16
$$

REGIONAL REPORTS...WYOMING/IDAHO/WASHINGTON

CITY           SKY/WX    TMP DP  RH WIND       PRES   REMARKS
GILLETTE       CLOUDY    30  27  88 S10       30.02F WCI  21
SHERIDAN       CLOUDY    27  24  89 CALM      29.98F
BUFFALO WY     CLOUDY    41  25  53 SW10      30.01F
CODY           CLOUDY    52  21  30 NW10      30.02F
YELLOWSTONE LA   N/A     28  20  71 CALM      30.19F
IDAHO FALLS    CLOUDY    25  22  88 SE8       30.16F WCI  16
SALMON         CLOUDY    28  27  93 CALM      30.12F
BOISE          CLOUDY    35  33  92 NW5       30.19R FOG
SPOKANE        CLOUDY    42  40  92 SW22      30.08S
$$

REGIONAL REPORTS...ALBERTA

CITY           SKY/WX    TMP DP  RH WIND       PRES   REMARKS
EDMONTON       CLOUDY    18  14  86 E5        29.81F
CALGARY        PTCLDY    28  27  93 SW5       29.74S
LETHBRIDGE     CLOUDY    43  34  70 SW13G18   29.77F
MEDICINE HAT   MOCLDY    37  32  81 SW21G28   29.78F WCI  27
CARDSTON         N/A     43  34  70 SW13G20     N/A
MILK RIVER       N/A     30  30 100 S9          N/A  WCI  22
ONEFOUR          N/A     25  23  93 E8          N/A  WCI  16
$$

REGIONAL REPORTS...SASKATCHEWAN

CITY           SKY/WX    TMP DP  RH WIND       PRES   REMARKS
SWIFT CURRENT  CLOUDY    18  16  93 S21       29.89F WCI   1
REGINA         FLURRIES   9   1  72 SE24G32   30.16F WCI -12
SASKATOON      CLOUDY    10   5  79 SE12      30.06F WCI  -4
CYPRESS HILLS    N/A     18  16  93 S2          N/A
VAL MARIE        N/A     19  18  93 SE12G17     N/A  WCI   7
ROCKGLEN         N/A     10   9  92 SE17G24     N/A  WCI  -7
ASSINIBOIA       N/A     16  14  93 SE6         N/A  WCI   7
$$




USA.gov is the U.S. government's official web portal to all federal, state and local government web resources and services.